Friday Harbor, WA
on Saturday, January 19, 2013

Saturday
Previous Day Next Day
Daily Summary
 ActualAverageRecord
Temperature
Mean Temperature °F °F  
Max Temperature 41°F 44°F 57°F (2005)
Min Temperature 34°F 36°F 23°F (2012)
Degree Days
Heating Degree Days 28    
Moisture
Dew Point 35°F   
Average Humidity 91    
Maximum Humidity 100    
Minimum Humidity 79    
Precipitation
Precipitation 0.00 in in in ()
Wind
Wind Speed 2 mph   
Max Wind Speed 7 mph   
Max Gust Speed mph   
Visibility 10 miles   
Events     
Averages and records for this station are not official NWS values.
Key: T is trace of precipitation, MM is missing value
Source: NWS Daily Summary
Seasonal Weather Averages
Time(PST)TemperatureDew PointHumidity Pressure Visibility Wind DirectionWind SpeedGust SpeedPrecipitationEvents Conditions
12:10 AM 35.6°F 35.6°F 100% 30.36 in 8.0 miles Calm Calm - N/A   Overcast
12:53 AM 37.0°F 36.0°F 96% 30.37 in 9.0 miles Calm Calm - N/A   Overcast
1:53 AM 37.0°F 36.0°F 96% 30.37 in 9.0 miles Calm Calm - N/A   Overcast
2:53 AM 37.9°F 36.0°F 93% 30.38 in 10.0 miles Calm Calm - N/A   Overcast
3:53 AM 39.0°F 36.0°F 89% 30.38 in 9.0 miles Calm Calm - N/A   Overcast
4:09 AM 37.4°F 35.6°F 93% 30.37 in 9.0 miles North 4.6 mph - N/A   Overcast
4:53 AM 37.9°F 35.1°F 89% 30.37 in 8.0 miles North 3.5 mph - N/A   Overcast
5:53 AM 37.9°F 35.1°F 89% 30.37 in 10.0 miles Calm Calm - N/A   Overcast
6:53 AM 37.9°F 35.1°F 89% 30.38 in 10.0 miles North 4.6 mph - N/A   Overcast
7:53 AM 37.0°F 34.0°F 89% 30.38 in 10.0 miles Calm Calm - N/A   Overcast
8:53 AM 37.0°F 34.0°F 89% 30.40 in 10.0 miles Variable 5.8 mph - N/A   Overcast
9:53 AM 37.0°F 35.1°F 93% 30.41 in 10.0 miles North 5.8 mph - N/A   Overcast
10:53 AM 37.9°F 35.1°F 89% 30.40 in 10.0 miles North 6.9 mph - N/A   Overcast
11:53 AM 39.9°F 35.1°F 83% 30.39 in 10.0 miles North 4.6 mph - N/A   Mostly Cloudy
12:07 PM 41.0°F 35.6°F 81% 30.38 in 10.0 miles NNE 5.8 mph - N/A   Mostly Cloudy
12:48 PM 41.0°F 35.6°F 81% 30.37 in 10.0 miles NW 5.8 mph - N/A   Scattered Clouds
12:53 PM 41.0°F 35.1°F 79% 30.38 in 10.0 miles North 4.6 mph - N/A   Scattered Clouds
1:53 PM 39.9°F 35.1°F 83% 30.37 in 10.0 miles North 6.9 mph - N/A   Clear
2:53 PM 39.9°F 35.1°F 83% 30.36 in 10.0 miles Variable 4.6 mph - N/A   Clear
3:53 PM 39.0°F 35.1°F 86% 30.37 in 10.0 miles NNW 5.8 mph - N/A   Clear
4:53 PM 37.9°F 35.1°F 89% 30.37 in 10.0 miles NW 5.8 mph - N/A   Clear
5:53 PM 37.9°F 35.1°F 89% 30.37 in 10.0 miles North 4.6 mph - N/A   Clear
6:43 PM 37.4°F 35.6°F 93% 30.37 in 10.0 miles Calm Calm - N/A   Partly Cloudy
6:53 PM 37.0°F 35.1°F 93% 30.38 in 10.0 miles Variable 3.5 mph - N/A   Scattered Clouds
7:00 PM 37.4°F 35.6°F 93% 30.37 in 10.0 miles Calm Calm - N/A   Mostly Cloudy
7:09 PM 37.4°F 35.6°F 93% 30.37 in 10.0 miles North 3.5 mph - N/A   Scattered Clouds
7:53 PM 37.0°F 35.1°F 93% 30.38 in 10.0 miles Calm Calm - N/A   Partly Cloudy
8:53 PM 36.0°F 35.1°F 97% 30.39 in 10.0 miles Calm Calm - N/A   Clear
9:20 PM 37.4°F 35.6°F 93% 30.38 in 10.0 miles Calm Calm - N/A   Scattered Clouds
9:37 PM 35.6°F 35.6°F 100% 30.39 in 9.0 miles Calm Calm - N/A   Mostly Cloudy
9:53 PM 37.0°F 36.0°F 96% 30.39 in 10.0 miles Calm Calm - N/A   Mostly Cloudy
10:07 PM 35.6°F 33.8°F 93% 30.38 in 9.0 miles Calm Calm - N/A   Scattered Clouds
10:53 PM 34.0°F 33.1°F 96% 30.39 in 9.0 miles Calm Calm - N/A   Partly Cloudy
11:53 PM 37.0°F 36.0°F 96% 30.40 in 10.0 miles Calm Calm - N/A   Clear
Moon Phase
Jan. 19 Jan. 26 Feb. 03 Feb. 10 Feb. 17
Sunrise:07:55 AM (PST) Moon Rise:11:25 AM (PST)
Sunset:04:50 PM (PST) Moon Set:01:28 AM (PST)

Copyright © 2014 The Weather Underground, Inc.